Hammond, LA

1:10 AM CST on December 12, 2017 (GMT -0600)
Hammond Municipal

Weather History for KHDC - October, 2013

Change the Weather History Date:

Thursday, October 10, 2013

  Actual Average (KMSY) Record (KMSY)
Temperature  
Mean Temperature 74 °F -  
Max Temperature 86 °F 80 °F 91 °F (1981)
Min Temperature 62 °F 60 °F 43 °F (1976)
Cooling Degree Days 9    
Growing Degree Days 24 (Base 50)    
Moisture  
Dew Point 64 °F    
Average Humidity 77    
Maximum Humidity 94    
Minimum Humidity 42    
Precipitation  
Precipitation 0.00 in - - ()
Sea Level Pressure  
Sea Level Pressure 30.07 in    
Wind  
Wind Speed 2 mph (ESE)    
Max Wind Speed 9 mph    
Max Gust Speed -    
Visibility 7 miles    
Events Fog    
Averages and records for this station are not official NWS values.
T = Trace of Precipitation, MM = Missing Value Source: NWS Daily Summary

Daily Weather History Graph

Daily Weather History Graph

Search for Another Location

Airport or City:

Trip Planner

Search our weather history database for the weather conditions in past years. The results will help you decide how hot, cold, wet, or windy it might be!

Date:

Astronomy

Oct. 10, 2013 Rise Set
Actual Time 7:00 AM CDT 6:35 PM CDT
Civil Twilight 6:36 AM CDT 6:59 PM CDT
Nautical Twilight 6:08 AM CDT 7:27 PM CDT
Astronomical Twilight 5:40 AM CDT 7:55 PM CDT
Moon 12:37 PM CDT (10/10) 11:28 PM CDT (10/10)
Length of Visible Light 12h 23m
Length of Day
11h 34m
Waxing Crescent, 36% of the Moon is Illuminated
Oct 10
Waxing Crescent
Oct 11
First Quarter
Oct 18
Full
Oct 26
Last Quarter
Nov 3
New

Hourly Weather History & Observations

Time (CDT) Temp. Heat Index Dew Point Humidity Pressure Visibility Wind Dir Wind Speed Gust Speed Precip Events Conditions
12:15 AM 68.0 °F - 64.4 °F 88% 30.08 in 10.0 mi East 3.5 mph - N/A   Mostly Cloudy
12:35 AM 68.0 °F - 64.4 °F 88% 30.08 in 10.0 mi NE 4.6 mph - N/A   Mostly Cloudy
12:55 AM 68.0 °F - 64.4 °F 88% 30.08 in 7.0 mi NE 4.6 mph - N/A   Scattered Clouds
1:15 AM 68.0 °F - 64.4 °F 88% 30.08 in 7.0 mi ENE 4.6 mph - N/A   Scattered Clouds
1:35 AM 68.0 °F - 64.4 °F 88% 30.08 in 7.0 mi ENE 4.6 mph - N/A   Scattered Clouds
1:55 AM 68.0 °F - 64.4 °F 88% 30.08 in 7.0 mi Calm Calm - N/A   Clear
2:15 AM 68.0 °F - 64.4 °F 88% 30.08 in 7.0 mi ENE 3.5 mph - N/A   Clear
2:35 AM 66.2 °F - 64.4 °F 94% 30.08 in 7.0 mi ENE 3.5 mph - N/A   Scattered Clouds
2:55 AM 66.2 °F - 62.6 °F 88% 30.08 in 7.0 mi Calm Calm - N/A   Scattered Clouds
3:15 AM 66.2 °F - 62.6 °F 88% 30.08 in 5.0 mi Calm Calm - N/A   Scattered Clouds
3:35 AM 66.2 °F - 62.6 °F 88% 30.08 in 5.0 mi Calm Calm - N/A   Mostly Cloudy
3:55 AM 66.2 °F - 62.6 °F 88% 30.08 in 5.0 mi Calm Calm - N/A   Mostly Cloudy
4:15 AM 66.2 °F - 62.6 °F 88% 30.07 in 5.0 mi Calm Calm - N/A   Scattered Clouds
4:35 AM 66.2 °F - 62.6 °F 88% 30.08 in 4.0 mi Calm Calm - N/A   Scattered Clouds
4:55 AM 64.4 °F - 62.6 °F 94% 30.08 in 3.0 mi Calm Calm - N/A   Mostly Cloudy
5:15 AM 62.6 °F - 60.8 °F 94% 30.09 in 4.0 mi Calm Calm - N/A   Mostly Cloudy
5:35 AM 64.4 °F - 60.8 °F 88% 30.09 in 0.8 mi Calm Calm - N/A   Overcast
5:55 AM 64.4 °F - 60.8 °F 88% 30.09 in 0.5 mi Calm Calm - N/A Fog Fog
6:15 AM 64.4 °F - 62.6 °F 94% 30.09 in 3.0 mi Calm Calm - N/A   Overcast
6:35 AM 66.2 °F - 62.6 °F 88% 30.10 in 0.8 mi Calm Calm - N/A   Overcast
6:55 AM 66.2 °F - 62.6 °F 88% 30.09 in 0.8 mi Calm Calm - N/A   Overcast
7:15 AM 66.2 °F - 62.6 °F 88% 30.10 in 0.5 mi Calm Calm - N/A Fog Fog
7:35 AM 66.2 °F - 64.4 °F 94% 30.10 in 0.5 mi Calm Calm - N/A Fog Fog
7:55 AM 66.2 °F - 64.4 °F 94% 30.10 in 0.5 mi Calm Calm - N/A Fog Fog
8:15 AM 68.0 °F - 64.4 °F 88% 30.11 in 0.2 mi Calm Calm - N/A Fog Fog
8:35 AM 68.0 °F - 64.4 °F 88% 30.12 in 0.5 mi Calm Calm - N/A Fog Fog
8:55 AM 68.0 °F - 66.2 °F 94% 30.12 in 0.8 mi Calm Calm - N/A   Overcast
9:15 AM 68.0 °F - 66.2 °F 94% 30.13 in 1.5 mi Calm Calm - N/A   Overcast
9:35 AM 69.8 °F - 66.2 °F 88% 30.13 in 3.0 mi Calm Calm - N/A   Overcast
9:55 AM 71.6 °F - 66.2 °F 83% 30.13 in 5.0 mi Calm Calm - N/A   Haze
10:15 AM 73.4 °F - 66.2 °F 78% 30.13 in 5.0 mi Calm Calm - N/A   Haze
10:35 AM 75.2 °F - 68.0 °F 78% 30.13 in 7.0 mi Calm Calm - N/A   Overcast
10:55 AM 75.2 °F - 66.2 °F 73% 30.13 in 10.0 mi Calm Calm - N/A   Overcast
11:15 AM 77.0 °F - 66.2 °F 69% 30.13 in 10.0 mi Calm Calm - N/A   Overcast
11:35 AM 78.8 °F - 66.2 °F 65% 30.13 in 10.0 mi Calm Calm - N/A   Overcast
11:55 AM 78.8 °F - 64.4 °F 61% 30.12 in 10.0 mi Calm Calm - N/A   Overcast
12:15 PM 80.6 °F 82.3 °F 64.4 °F 58% 30.11 in 10.0 mi Calm Calm - N/A   Overcast
12:35 PM 82.4 °F 83.9 °F 64.4 °F 54% 30.10 in 10.0 mi East 5.8 mph - N/A   Mostly Cloudy
12:55 PM 82.4 °F 83.4 °F 62.6 °F 51% 30.09 in 10.0 mi East 6.9 mph - N/A   Scattered Clouds
1:15 PM 82.4 °F 83.4 °F 62.6 °F 51% 30.08 in 10.0 mi Calm Calm - N/A   Scattered Clouds
1:35 PM 80.6 °F 81.8 °F 62.6 °F 54% 30.08 in 10.0 mi ESE 5.8 mph - N/A   Clear
1:55 PM 84.2 °F 85.0 °F 62.6 °F 48% 30.07 in 10.0 mi East 8.1 mph - N/A   Clear
2:15 PM 80.6 °F 81.8 °F 62.6 °F 54% 30.06 in 10.0 mi East 3.5 mph - N/A   Scattered Clouds
2:35 PM 86.0 °F 86.1 °F 60.8 °F 43% 30.05 in - SSE 6.9 mph - N/A   Unknown
2:55 PM 84.2 °F 84.4 °F 60.8 °F 45% 30.05 in 10.0 mi SSE 6.9 mph - N/A   Mostly Cloudy
3:15 PM 86.0 °F 86.1 °F 60.8 °F 43% 30.05 in 10.0 mi SE 9.2 mph - N/A   Overcast
3:35 PM 84.2 °F 83.8 °F 59.0 °F 42% 30.04 in 10.0 mi SSE 6.9 mph - N/A   Scattered Clouds
3:55 PM 84.2 °F 84.4 °F 60.8 °F 45% 30.03 in 10.0 mi SSE 8.1 mph - N/A   Scattered Clouds
4:15 PM 84.2 °F 84.4 °F 60.8 °F 45% 30.03 in 10.0 mi SE 8.1 mph - N/A   Scattered Clouds
4:35 PM 82.4 °F 82.9 °F 60.8 °F 48% 30.03 in 10.0 mi SE 4.6 mph - N/A   Clear
4:55 PM 82.4 °F 82.9 °F 60.8 °F 48% 30.03 in 10.0 mi SSE 6.9 mph - N/A   Clear
5:15 PM 82.4 °F 83.4 °F 62.6 °F 51% 30.03 in 10.0 mi SE 5.8 mph - N/A   Clear
5:35 PM 80.6 °F 81.8 °F 62.6 °F 54% 30.02 in 10.0 mi SE 5.8 mph - N/A   Clear
5:55 PM 78.8 °F - 64.4 °F 61% 30.02 in 10.0 mi SSE 3.5 mph - N/A   Clear
6:15 PM 77.0 °F - 64.4 °F 65% 30.02 in 10.0 mi SSE 3.5 mph - N/A   Clear
6:35 PM 73.4 °F - 64.4 °F 73% 30.02 in 10.0 mi SE 8.1 mph - N/A   Clear
6:55 PM 73.4 °F - 66.2 °F 78% 30.02 in 10.0 mi SE 3.5 mph - N/A   Clear
7:15 PM 71.6 °F - 66.2 °F 83% 30.02 in 10.0 mi SE 3.5 mph - N/A   Clear
7:35 PM 71.6 °F - 66.2 °F 83% 30.02 in 10.0 mi Calm Calm - N/A   Clear
7:55 PM 71.6 °F - 66.2 °F 83% 30.03 in 10.0 mi SE 3.5 mph - N/A   Clear
8:15 PM 71.6 °F - 66.2 °F 83% 30.03 in 10.0 mi Calm Calm - N/A   Clear
8:35 PM 69.8 °F - 66.2 °F 88% 30.03 in 10.0 mi Calm Calm - N/A   Clear
8:55 PM 69.8 °F - 66.2 °F 88% 30.03 in 7.0 mi Calm Calm - N/A   Clear
9:15 PM 69.8 °F - 66.2 °F 88% 30.04 in 10.0 mi Calm Calm - N/A   Clear
9:35 PM 69.8 °F - 66.2 °F 88% 30.04 in 10.0 mi Calm Calm - N/A   Clear
9:55 PM 68.0 °F - 64.4 °F 88% 30.04 in 10.0 mi Calm Calm - N/A   Clear
10:15 PM 68.0 °F - 64.4 °F 88% 30.04 in 10.0 mi Calm Calm - N/A   Clear
10:35 PM 69.8 °F - 66.2 °F 88% 30.04 in 7.0 mi Calm Calm - N/A   Clear
10:55 PM 68.0 °F - 64.4 °F 88% 30.04 in 7.0 mi Calm Calm - N/A   Clear
11:15 PM 68.0 °F - 64.4 °F 88% 30.03 in 7.0 mi Calm Calm - N/A   Clear
11:35 PM 66.2 °F - 64.4 °F 94% 30.03 in 10.0 mi Calm Calm - N/A   Clear
11:55 PM 66.2 °F - 64.4 °F 94% 30.03 in 7.0 mi Calm Calm - N/A   Clear